[[{"header":{"parameterUnit":"m.s-1","parameterCategory":1,"la1":30.2991,"la2":30.254,"lo1":-89.0895,"lo2":-89.0444,"dy":0.0017,"dx":0.0017,"nx":28,"ny":28,"refTime":"2025-06-09T09:00:00:Z","depth":0,"parameterNumber":2,"parameterNumberName":"U-component_of_WINDS"},"data":[0,0,0,0,0,0,0,0,0,0,0,0,0,0,0,0,0,0,0,0,0,0,0,0,0,0,0,0,0,0,0,0,0,0,0,0,0,0,0,0,0,0,0,0,0,0,0,0,0,0,0,0,0,0,0,0,0,0,1.0444,1.0444,0,1.0468,1.0468,1.0468,1.0405,1.0403,1.0401,1.0399,1.0424,1.0426,1.0429,0,0,0,0,0,0,0,0,0,0,0,0,0,1.0343,1.0345,1.0444,1.0444,1.0444,1.0468,1.0468,1.0468,1.0405,1.0402,1.04,1.0398,1.0423,1.0426,1.0429,0,0,0,0,0,0,0,0,0,0,0,0,0,1.0379,1.0346,1.0444,1.0416,1.0413,1.0468,1.0468,1.0468,1.0405,1.0402,1.0399,1.0397,1.0422,1.0426,1.0429,1.0512,0,0,1.0441,1.0442,0,0,0,0,0,0,0,0,1.0377,1.0382,1.0419,1.0418,1.0415,1.043,1.0441,1.0483,1.0406,1.0408,1.0399,1.0395,1.0428,1.0431,1.0442,1.0513,1.0514,1.0441,1.0443,1.0445,1.0446,0,0,0,0,0,0,0,1.0374,1.0381,1.0453,1.042,1.0417,1.0401,1.0403,1.0449,1.0435,1.0408,1.0403,1.0407,1.0426,1.0439,1.0442,1.0515,1.0441,1.0444,1.0447,1.0448,1.0651,1.0654,0,0,0,0,0,0,1.0375,1.0379,1.0452,1.0454,1.0388,1.0406,1.0408,1.0428,1.0434,1.0432,1.041,1.0404,1.0434,1.0438,1.0443,1.0538,1.0445,1.0448,1.0451,1.0648,1.0652,1.0655,0,0,0,0,0,0,1.0373,1.0383,1.0452,1.0415,1.0423,1.0411,1.0434,1.043,1.0442,1.0435,1.0432,1.0425,1.0432,1.0438,1.0495,1.0538,1.045,1.0454,1.0645,1.0649,1.0654,1.073,0,0,0,0,0,0,1.0371,1.0382,1.0414,1.0417,1.0425,1.0503,1.0437,1.0433,1.0449,1.0442,1.0449,1.0447,1.043,1.0489,1.0498,1.0541,1.0457,1.0641,1.0647,1.0652,1.0723,1.0737,1.0748,0,0,0,0,0,1.0367,1.0435,1.0416,1.0425,1.0465,1.0506,1.0511,1.0489,1.0453,1.0484,1.0479,1.0447,1.0532,1.0496,1.0505,1.055,1.0638,1.0645,1.0652,1.0718,1.0734,1.0748,0,0,0,0,0,0,1.0439,1.0435,1.0414,1.0485,1.0496,1.0495,1.0534,1.0508,1.053,1.0522,1.0495,1.0497,1.0558,1.056,1.052,1.0629,1.0579,1.0588,1.0625,1.0641,1.0653,1.065,1.046,0,0,0,0,0,1.0463,1.0497,1.0492,1.0555,1.0562,1.0547,1.0564,1.0547,1.0557,1.0562,1.0561,1.0573,1.0602,1.0622,1.0648,1.0724,1.0723,1.0759,1.0772,1.0782,1.0789,1.0827,1.0842,1.0679,1.0679,1.0678,0,0,1.0513,1.0515,1.0539,1.0569,1.0576,1.0611,1.0552,1.0592,1.0617,1.0568,1.0621,1.0621,1.0632,1.0698,1.0727,1.0701,1.0835,1.0791,1.0799,1.0801,1.0836,1.0851,1.0865,1.0683,1.0682,1.0682,0,0,1.0622,1.0628,1.0679,1.0687,1.0697,1.0686,1.0699,1.0702,1.0699,1.0752,1.0715,1.0745,1.0796,1.0805,1.0816,1.0925,1.0895,1.0935,1.0998,1.1035,1.1048,1.1059,1.1096,1.1109,1.0943,1.0943,1.0943,0,1.0682,1.0734,1.0709,1.0751,1.0764,1.0721,1.0772,1.0781,1.08,1.081,1.0781,1.0843,1.0848,1.0913,1.094,1.0951,1.0963,1.0933,1.1048,1.1059,1.1069,1.1103,1.1118,1.0948,1.0947,1.0947,1.0946,0,1.0806,1.0842,1.0883,1.0901,1.0919,1.0966,1.0947,1.0969,1.0949,1.0942,1.0994,1.0998,1.1023,1.1038,1.102,1.1101,1.1084,1.1052,1.1001,1.1089,1.1121,1.1135,1.0954,1.0953,1.0951,1.095,0,0,1.0961,1.0963,1.0978,1.0984,1.0992,1.1019,1.1063,1.1087,1.1105,1.1119,1.1154,1.1197,1.1167,1.118,1.1162,1.1195,1.1278,1.1158,1.1158,1.1178,1.1364,1.1386,1.1402,1.1258,1.1261,1.1263,1.1362,0,1.1066,1.114,1.1118,1.1193,1.1224,1.1183,1.122,1.1229,1.1222,1.1248,1.1241,1.1271,1.123,1.1237,1.1267,1.1261,1.1314,1.1254,1.1289,1.1291,1.1286,1.1419,1.1444,1.1537,1.1375,1.1377,1.1378,0,1.1198,1.1216,1.1293,1.1292,1.1305,1.1339,1.1358,1.1383,1.1391,1.1384,1.1398,1.1373,1.1414,1.1364,1.142,1.1379,1.1392,1.1392,1.1395,1.1396,1.1339,1.1422,1.1567,1.158,1.1398,1.1397,1.1395,0,1.13,1.1344,1.1394,1.1401,1.1403,1.1427,1.1429,1.1434,1.1449,1.1466,1.1475,1.1497,1.1508,1.1525,1.1507,1.1472,1.1565,1.1513,1.1559,1.1559,1.1579,1.1578,1.1726,1.1591,1.1591,1.1591,1.1591,0,1.1418,1.1467,1.1439,1.1471,1.1523,1.1497,1.1549,1.1547,1.1551,1.158,1.1546,1.1575,1.1549,1.1574,1.156,1.1608,1.1614,1.1608,1.1604,1.161,1.1611,1.1617,1.1609,1.1595,1.1594,1.1593,1.1593,0,1.1541,1.1525,1.1577,1.1573,1.1573,1.1612,1.1608,1.1636,1.1627,1.1664,1.1672,1.1657,1.1685,1.1669,1.1698,1.1688,1.1749,1.1737,1.1746,1.1742,1.1788,1.1783,1.1944,1.1963,1.1818,1.182,1.1821,0,1.1616,1.1652,1.1651,1.1668,1.1671,1.1699,1.1713,1.1689,1.1706,1.1716,1.1743,1.1768,1.1786,1.1833,1.1825,1.1847,1.1833,1.1888,1.1836,1.1841,1.1831,1.1828,1.1831,1.1898,1.19,1.1901,1.1902,0,1.1751,1.174,1.1762,1.1781,1.1799,1.1813,1.1824,1.1839,1.1815,1.1835,1.1862,1.1877,1.1905,1.193,1.1948,1.1949,1.1921,1.1919,1.193,1.1936,1.1939,1.1936,1.1772,1.1915,1.1914,1.1913,1.1912,1.1911,1.185,1.1879,1.1882,1.1907,1.1912,1.1923,1.1948,1.1941,1.1964,1.1984,1.1969,1.2001,1.2006,1.2027,1.2032,1.2056,1.2034,1.2051,1.2055,1.2059,1.2064,1.1937,1.206,1.206,1.2059,1.2059,1.2059,0,1.1981,1.1981,1.2004,1.2019,1.2038,1.201,1.202,1.2037,1.2066,1.2073,1.2091,1.2122,1.2145,1.2139,1.2159,1.218,1.2167,1.2186,1.2183,1.2183,1.2084,1.2071,1.2195,1.2195,1.2195,1.2195,1.2195,1.2195,1.2051,1.2097,1.2087,1.2135,1.2134,1.2165,1.2172,1.2181,1.2186,1.2222,1.224,1.2236,1.2237,1.2257,1.2276,1.2274,1.2282,1.2305,1.2297,1.2204,1.2191,1.2178,1.2165,1.2307,1.2307,1.2394,1.2395,1.2395]},{"header":{"parameterUnit":"m.s-1","parameterCategory":1,"la1":30.2991,"la2":30.254,"lo1":-89.0895,"lo2":-89.0444,"dy":0.0017,"dx":0.0017,"nx":28,"ny":28,"refTime":"2025-06-09T09:00:00:Z","depth":0,"parameterNumber":3,"parameterNumberName":"V-component_of_WINDS"},"data":[0,0,0,0,0,0,0,0,0,0,0,0,0,0,0,0,0,0,0,0,0,0,0,0,0,0,0,0,0,0,0,0,0,0,0,0,0,0,0,0,0,0,0,0,0,0,0,0,0,0,0,0,0,0,0,0,0,0,1.1207,1.1207,0,1.1254,1.1254,1.1255,1.1212,1.121,1.1208,1.1207,1.1253,1.1255,1.1258,0,0,0,0,0,0,0,0,0,0,0,0,0,1.1076,1.1079,1.1207,1.1207,1.1208,1.1254,1.1254,1.1255,1.1212,1.121,1.1208,1.1206,1.1252,1.1255,1.1258,0,0,0,0,0,0,0,0,0,0,0,0,0,1.1129,1.108,1.1207,1.1192,1.1191,1.1253,1.1254,1.1255,1.1213,1.121,1.1207,1.1205,1.1251,1.1255,1.1259,1.1337,0,0,1.1272,1.1274,0,0,0,0,0,0,0,0,1.1126,1.1134,1.1194,1.1193,1.1192,1.1224,1.1225,1.1282,1.1213,1.1204,1.1207,1.1204,1.1245,1.125,1.1264,1.1339,1.1341,1.1272,1.1275,1.1277,1.1278,0,0,0,0,0,0,0,1.1123,1.1132,1.1225,1.1195,1.1194,1.1182,1.1187,1.1236,1.1239,1.1205,1.1202,1.1208,1.1244,1.126,1.1265,1.1342,1.1272,1.1276,1.1279,1.128,1.1481,1.1484,0,0,0,0,0,0,1.1121,1.1129,1.1224,1.1227,1.1152,1.1187,1.1192,1.1217,1.1238,1.1239,1.121,1.1206,1.1254,1.126,1.1266,1.1358,1.1277,1.1281,1.1283,1.1478,1.1482,1.1485,0,0,0,0,0,0,1.1118,1.113,1.1222,1.1177,1.1188,1.1192,1.122,1.1219,1.1235,1.1242,1.1242,1.1226,1.1252,1.126,1.1319,1.1359,1.1283,1.1286,1.1475,1.1479,1.1483,1.1543,0,0,0,0,0,0,1.1115,1.1129,1.116,1.1178,1.119,1.1276,1.1222,1.1222,1.1242,1.1237,1.1257,1.1258,1.1251,1.1313,1.1324,1.1363,1.129,1.1471,1.1477,1.1482,1.1537,1.1548,1.1558,0,0,0,0,0,1.111,1.1175,1.1162,1.1173,1.1229,1.1278,1.1285,1.1276,1.1246,1.1276,1.128,1.1257,1.1353,1.132,1.1331,1.1373,1.1469,1.1475,1.1481,1.1533,1.1546,1.1558,0,0,0,0,0,0,1.1161,1.1177,1.1163,1.1235,1.1256,1.1271,1.1309,1.1291,1.132,1.1314,1.1301,1.1306,1.1368,1.1376,1.1339,1.1448,1.1406,1.1415,1.1441,1.1454,1.1464,1.1461,1.1293,0,0,0,0,0,1.118,1.122,1.1231,1.1294,1.1305,1.1305,1.1326,1.1318,1.1338,1.1346,1.1355,1.1375,1.1409,1.1432,1.1464,1.1538,1.1541,1.1572,1.1582,1.1591,1.1599,1.1637,1.165,1.1505,1.1505,1.1505,0,0,1.1221,1.1235,1.1261,1.1305,1.1319,1.1359,1.1313,1.1357,1.1386,1.1353,1.1409,1.1416,1.1437,1.1504,1.1533,1.1512,1.1639,1.1599,1.1606,1.1609,1.1644,1.1658,1.167,1.151,1.1509,1.1508,0,0,1.1316,1.1331,1.1384,1.14,1.1423,1.1422,1.1435,1.1452,1.1456,1.1512,1.1487,1.1521,1.1581,1.1596,1.1612,1.1711,1.169,1.1721,1.1776,1.1813,1.1824,1.1834,1.1868,1.1881,1.1729,1.1729,1.1729,0,1.1364,1.1424,1.1414,1.1459,1.1479,1.145,1.1503,1.1518,1.1551,1.1564,1.154,1.1613,1.1626,1.1695,1.1719,1.1733,1.1746,1.1719,1.1824,1.1833,1.1843,1.1875,1.1888,1.1733,1.1732,1.1732,1.1732,0,1.148,1.1522,1.1562,1.1594,1.1618,1.1667,1.1663,1.1688,1.1677,1.1678,1.1735,1.1748,1.1782,1.1798,1.1787,1.1865,1.1851,1.1826,1.1783,1.186,1.189,1.1903,1.1738,1.1737,1.1736,1.1735,0,0,1.1609,1.1634,1.1649,1.1662,1.1685,1.1716,1.1763,1.1796,1.1817,1.184,1.1878,1.1928,1.1905,1.1922,1.1913,1.1946,1.2022,1.1916,1.1917,1.1935,1.2106,1.2125,1.2139,1.2008,1.201,1.2012,1.2104,0,1.1704,1.1787,1.1778,1.1856,1.1893,1.1866,1.1907,1.1924,1.1926,1.1957,1.1959,1.1995,1.1961,1.1972,1.2003,1.2006,1.2056,1.1999,1.2042,1.2044,1.2037,1.2155,1.2175,1.2261,1.2116,1.2118,1.2119,0,1.1826,1.1853,1.1935,1.195,1.1965,1.2002,1.2031,1.2061,1.208,1.2079,1.2098,1.2083,1.2128,1.2084,1.2146,1.2108,1.2124,1.2128,1.2131,1.2135,1.2086,1.2161,1.2289,1.2302,1.2138,1.2136,1.2135,0,1.191,1.1967,1.2023,1.2035,1.2055,1.2081,1.209,1.2106,1.2126,1.2151,1.2163,1.2193,1.2209,1.2232,1.2224,1.2193,1.2287,1.2243,1.2286,1.2286,1.2307,1.2306,1.2439,1.2319,1.2319,1.2318,1.2318,0,1.2016,1.2067,1.2061,1.2095,1.2151,1.2139,1.2194,1.22,1.2214,1.2248,1.2226,1.2258,1.2246,1.2277,1.2271,1.2322,1.233,1.2329,1.2327,1.2331,1.2331,1.2342,1.2335,1.2322,1.2321,1.232,1.232,0,1.212,1.2118,1.2177,1.219,1.2195,1.2235,1.2246,1.2277,1.2277,1.232,1.2329,1.2329,1.2364,1.2359,1.2398,1.2394,1.2457,1.2448,1.2451,1.2449,1.2492,1.2488,1.2636,1.2655,1.2524,1.2525,1.2526,0,1.2188,1.2226,1.2244,1.2265,1.2276,1.2311,1.2331,1.2321,1.2342,1.2365,1.2394,1.2427,1.2453,1.251,1.2512,1.2541,1.2532,1.2582,1.2536,1.2539,1.2532,1.2529,1.2532,1.2591,1.2593,1.2594,1.2595,0,1.2308,1.2305,1.2335,1.2365,1.2389,1.2412,1.2433,1.2451,1.2442,1.2467,1.2503,1.2523,1.2563,1.2595,1.2622,1.263,1.2611,1.2609,1.262,1.2625,1.2625,1.2624,1.2475,1.2606,1.2605,1.2604,1.2603,1.2603,1.2395,1.2427,1.2444,1.2478,1.2493,1.2512,1.2542,1.2545,1.2575,1.2607,1.2598,1.2639,1.2654,1.2688,1.2699,1.2729,1.2711,1.2728,1.2732,1.2736,1.2741,1.262,1.2734,1.2734,1.2734,1.2733,1.2733,0,1.2513,1.2522,1.2554,1.2583,1.2609,1.2589,1.261,1.2633,1.2669,1.2686,1.2711,1.2752,1.2783,1.2787,1.2816,1.284,1.2831,1.2848,1.2845,1.2847,1.2756,1.2743,1.2854,1.2854,1.2854,1.2854,1.2854,1.2854,1.2578,1.2631,1.2629,1.2689,1.2697,1.2737,1.275,1.2767,1.278,1.2826,1.2852,1.2855,1.2866,1.2896,1.2923,1.2923,1.2935,1.2954,1.2951,1.2866,1.2854,1.2842,1.283,1.2957,1.2957,1.304,1.304,1.3041]}]]